アトラス彗星

C/2023 B2 ( ATLAS )

English version
Home page
Updated on August 27, 2023

---------------------------------------------------------------------

・ プロフィール

発見日 2023年1月21日
発見光度 18.8等
発見者 Asteroid Terrestrial-Impact Last Alert System (ATLAS) search program

・ 写真集

・ 軌道要素

Epoch 2023 Feb. 25.0 TT = JDT 2460000.5
T 2023 Mar. 10.49695 TT                                 Rudenko
q   1.7431316            (2000.0)            P               Q
z  +0.0016723      Peri.  317.40005     -0.89554599     -0.18836906
 +/-0.0000005      Node   218.12073     +0.12891899     -0.97695622
e   0.9970850      Incl.   40.77069     -0.42588412     +0.10036755
>From 485 observations 2022 Nov. 16-2023 July 1, mean residual 0".5.

・ 星図

・ 光度変化

        m1 = 9.0 + 5 logΔ + 25.0 log r(t - 50)

---------------------------------------------------------------------

軌道要素はM.P.E.C. 2023-N16に掲載されたものです。
星図はステラナビゲータ Ver.10 (アストロアーツ) で作成したものです。
光度グラフはComet for Windowsで作成したものです。

---------------------------------------------------------------------

Copyright(C) Seiichi Yoshida (comet@aerith.net). All rights reserved.